Regional Weather Roundup
Issued by NWS

Home | Current Version | Previous Version | Graphics & Text | Print | Product List | Glossary On
Versions: 1 2 3 4 5 6 7 8 9 10 11 12 13 14 15 16 17 18 19 20 21 22 23 24 25 26 27 28 29 30 31 32 33 34 35 36 37 38 39 40 41 42 43 44 45 46 47 48 49 50
000
ASUS43 KDTX 241501
RWRMI
MICHIGAN HOURLY REGIONAL WEATHER ROUNDUP
NATIONAL WEATHER SERVICE DETROIT/PONTIAC MI
1100 AM EDT THU APR 24 2014

NOTE: "FAIR" INDICATES FEW OR NO CLOUDS BELOW 12,000 FEET WITH NO
SIGNIFICANT WEATHER AND/OR OBSTRUCTION TO VISIBILITY.

MIZ047>049-052>055-059>063-066>070-074>076-081>083-241600-
SOUTHEAST LOWER MICHIGAN

CITY           SKY/WX    TMP DP  RH WIND       PRES   REMARKS
ADRIAN         PTSUNNY   49  18  29 SE12      30.16S
ALMA           CLOUDY    47  18  31 SE9       30.14F
ANN ARBOR      PTSUNNY   47  16  29 SE12      30.16F
BAD AXE        CLOUDY    46  22  39 SE3       30.18F
CARO           CLOUDY    48  19  30 SE7       30.16F
DETROIT CITY   PTSUNNY   50  16  25 SE7       30.20S
DETROIT        CLOUDY    49  13  23 SE8       30.19S
FLINT          CLOUDY    52  16  24 SE14      30.16F
GROSSE ILE     CLOUDY    46  21  36 SE8       30.17F
HILLSDALE      CLOUDY    48  20  32 SE10G16   30.12F
HOWELL         CLOUDY    48  15  26 SE15      30.15S

CITY           SKY/WX    TMP DP  RH WIND       PRES   REMARKS
JACKSON        CLOUDY    48  21  34 SE14      30.14S
LAMBERTVILLE   PTSUNNY   50  23  34 SE9G17    30.17F
LANSING        CLOUDY    51  26  37 SE15      30.13F
LAPEER         CLOUDY    47  15  27 MISG      30.17F
MASON          CLOUDY    49  20  30 SE12G17   30.14S
MONROE         PTSUNNY   48  27  43 E8        30.17S
MT. CLEMENS    PTSUNNY   46  23  39 VRB5      30.18S
PONTIAC        PTSUNNY   47  13  25 SE8       30.16F
PORT HOPE        N/A     41  28  60 NE3       30.17S
PORT HURON     PTSUNNY   48  25  40 S5        30.19S
TRI CITIES     CLOUDY    48  17  29 SE13      30.16F
TROY           CLOUDY    48  16  27 SE3       30.19S
SAGINAW HB     CLOUDY    46  18  31 SE8       30.16F
YPSILANTI      CLOUDY    51  14  22 SE12      30.18S
$$
MIZ043>046-050>051-056>058-064>065-071>073-077>080-241600-
SOUTHWEST LOWER MICHIGAN

CITY           SKY/WX    TMP DP  RH WIND       PRES   REMARKS
BATTLE CREEK   CLOUDY    50  29  44 SE9       30.10F
BENTON HARBOR  PTSUNNY   54  34  46 SE18G29   30.03F
BIG RAPIDS     CLOUDY    46  24  42 SE10      30.09F
COLDWATER      PTSUNNY   51  22  32 SE16G24   30.11S
FREMONT        CLOUDY    47  30  50 SE9       30.08R
HOLLAND        CLOUDY    52  39  61 E14       30.06F
GRAND RAPIDS   LGT RAIN  51  30  44 SE13      30.10S
IONIA          CLOUDY    49  29  47 SE14      30.10F
KALAMAZOO      CLOUDY    52  28  39 SE12      30.09F
LUDINGTON      CLOUDY    47  27  44 SE10      30.07S
MARSHALL       CLOUDY    47  26  43 SE15      30.11F
MOUNT PLEASANT CLOUDY    48  15  26 E14       30.13F
MUSKEGON       LGT RAIN  47  37  68 SE9       30.08S
SOUTH HAVEN    CLOUDY    53  32  44 SE9G20    30.05F
$$
MIZ016>042-241600-
NORTHERN LOWER MICHIGAN

CITY           SKY/WX    TMP DP  RH WIND       PRES   REMARKS
ALPENA         MOSUNNY   50  23  34 SE9       30.16F
BEAVER ISLAND  CLOUDY    39  25  56 E8        30.12F WCI  34
BELLAIRE       CLOUDY    48  18  30 SE5       30.11S
CADILLAC       CLOUDY    44  19  36 SE10G16   30.09S
CHARLEVOIX     CLOUDY    42  24  49 E8        30.14F
FRANKFORT      CLOUDY    47  19  32 SE8       30.08S
GAYLORD        CLOUDY    42  20  41 SE9       30.12F
GRAYLING       CLOUDY    48  18  30 SE9       30.12F
HARBOR SPRINGS CLOUDY    44  26  50 E6        30.13S
HOUGHTON LAKE  CLOUDY    46  19  34 SE8       30.12F
MANISTEE       CLOUDY    48  21  34 SE12      30.07F
OSCODA         PTSUNNY   47  27  45 E6        30.17S
PELLSTON       CLOUDY    43  24  47 SE7       30.14F
ROGERS CITY    MOSUNNY   41  32  70 NE5       30.17S
TRAVERSE CITY  CLOUDY    48  17  29 VRB7      30.09F
$$
MIZ007>008-015-241600-
EASTERN UPPER MICHIGAN

CITY           SKY/WX    TMP DP  RH WIND       PRES   REMARKS
KINROSS        MOSUNNY   48  21  34 SE12      30.14F
MACKINAC ISLAN PTSUNNY   37  27  65 E7        30.15S WCI  32
NEWBERRY       CLOUDY    42  26  52 SE9       30.12S
S. S. MARIE    PTSUNNY   45  24  43 SE8       30.15F
MUNISING         N/A     42  22  44 SE3       30.10F
$$
MIZ004>006-011>014-085-241600-
CENTRAL UPPER MICHIGAN

CITY           SKY/WX    TMP DP  RH WIND       PRES   REMARKS
MANISTIQUE     CLOUDY    38  26  61 E8        30.11F WCI  32
ESCANABA       CLOUDY    39  25  56 E7        30.09S WCI  34
MENOMINEE      CLOUDY    37  28  70 SE5       30.07S WCI  34
SAWYER-GWINN   CLOUDY    39  21  48 SE8       30.07F WCI  34
$$
MIZ001>003-009>011-084-241600-
WESTERN UPPER MICHIGAN

CITY           SKY/WX    TMP DP  RH WIND       PRES   REMARKS
IRON MOUNTAIN  CLOUDY    39  19  44 SE8       30.04S WCI  33
HOUGHTON       CLOUDY    37  24  59 E8        30.04F WCI  31
COPPER HARBOR    N/A     41  20  43 S8G18     30.08F
IRONWOOD       CLOUDY    37  28  70 E12G21    29.92F WCI  30
$$

ABBREVIATIONS USED IN REMARKS
   TC - TEMPERATURE IN CELSIUS
  WCI - WIND CHILL INDEX
   HX - HEAT INDEX
  VSB - VISIBILITY




USA.gov is the U.S. government's official web portal to all federal, state and local government web resources and services.